Time,TemperatureF,DewpointF,PressureIn,WindDirection,WindDirectionDegrees,WindSpeedMPH,WindSpeedGustMPH,Humidity,HourlyPrecipIn,Conditions,Clouds,dailyrainin,SolarRadiationWatts/m^2,SoftwareType,DateUTC
2013-01-12 00:03:00,61.0,61.0,-100.00,SW,219,2.0,8.0,100,0.01,,,0.11,0.000000,,2013-01-12 05:03:00,
2013-01-12 00:12:00,61.0,61.0,-100.00,SW,219,2.0,8.0,100,0.01,,,0.11,0.000000,,2013-01-12 05:12:00,
2013-01-12 00:32:00,62.0,62.0,-100.00,SW,229,0.0,8.0,100,0.00,,,0.11,0.000000,,2013-01-12 05:32:00,
2013-01-12 00:42:00,62.0,62.0,-100.00,SW,229,0.0,8.0,100,0.00,,,0.11,0.000000,,2013-01-12 05:42:00,
2013-01-12 00:53:00,62.0,62.0,-100.00,SW,229,0.0,8.0,100,0.00,,,0.11,0.000000,,2013-01-12 05:53:00,
2013-01-12 01:03:00,62.0,62.0,-100.00,SW,229,0.0,8.0,100,0.00,,,0.11,0.000000,,2013-01-12 06:03:00,
2013-01-12 01:12:00,62.0,62.0,-100.00,SW,229,0.0,8.0,100,0.00,,,0.11,0.000000,,2013-01-12 06:12:00,
2013-01-12 01:33:00,62.0,62.0,-100.00,SW,231,3.0,8.0,100,0.00,,,0.11,0.000000,,2013-01-12 06:33:00,
2013-01-12 01:43:00,62.0,62.0,-100.00,SW,231,3.0,8.0,100,0.00,,,0.11,0.000000,,2013-01-12 06:43:00,
2013-01-12 01:53:00,62.0,62.0,-100.00,SW,231,3.0,8.0,100,0.00,,,0.11,0.000000,,2013-01-12 06:53:00,
2013-01-12 02:02:00,62.0,62.0,-100.00,SW,231,3.0,8.0,100,0.00,,,0.11,0.000000,,2013-01-12 07:02:00,
2013-01-12 02:12:00,62.0,62.0,-100.00,SW,231,3.0,8.0,100,0.00,,,0.11,0.000000,,2013-01-12 07:12:00,
2013-01-12 02:32:00,62.0,62.0,-100.00,WSW,250,0.0,9.0,100,0.00,,,0.11,0.000000,,2013-01-12 07:32:00,
2013-01-12 02:42:00,62.0,62.0,-100.00,WSW,250,0.0,9.0,100,0.00,,,0.11,0.000000,,2013-01-12 07:42:00,
2013-01-12 02:53:00,62.0,62.0,-100.00,WSW,250,0.0,9.0,100,0.00,,,0.11,0.000000,,2013-01-12 07:53:00,
2013-01-12 03:02:00,62.0,62.0,-100.00,WSW,250,0.0,9.0,100,0.00,,,0.11,0.000000,,2013-01-12 08:02:00,
2013-01-12 03:12:00,62.0,62.0,-100.00,WSW,250,0.0,9.0,100,0.00,,,0.11,0.000000,,2013-01-12 08:12:00,
2013-01-12 03:42:00,62.0,62.0,-100.00,SW,234,0.0,5.0,100,0.00,,,0.11,0.000000,,2013-01-12 08:42:00,
2013-01-12 03:53:00,62.0,62.0,-100.00,SW,234,0.0,5.0,100,0.00,,,0.11,0.000000,,2013-01-12 08:53:00,
2013-01-12 04:02:00,62.0,62.0,-100.00,SW,234,0.0,5.0,100,0.00,,,0.11,0.000000,,2013-01-12 09:02:00,
2013-01-12 04:12:00,62.0,62.0,-100.00,SW,234,0.0,5.0,100,0.00,,,0.11,0.000000,,2013-01-12 09:12:00,
2013-01-12 04:33:00,60.0,60.0,-100.00,SW,233,0.0,0.0,100,0.00,,,0.11,0.000000,,2013-01-12 09:33:00,
2013-01-12 04:43:00,60.0,60.0,-100.00,SW,233,0.0,0.0,100,0.00,,,0.11,0.000000,,2013-01-12 09:43:00,
2013-01-12 04:53:00,60.0,60.0,-100.00,SW,233,0.0,0.0,100,0.00,,,0.11,0.000000,,2013-01-12 09:53:00,
2013-01-12 05:02:00,60.0,60.0,-100.00,SW,233,0.0,0.0,100,0.00,,,0.11,0.000000,,2013-01-12 10:02:00,
2013-01-12 05:12:00,60.0,60.0,-100.00,SW,233,0.0,0.0,100,0.00,,,0.11,0.000000,,2013-01-12 10:12:00,
2013-01-12 05:43:00,60.0,60.0,-100.00,WSW,249,0.0,0.0,100,0.00,,,0.11,0.000000,,2013-01-12 10:43:00,
2013-01-12 05:52:00,60.0,60.0,-100.00,WSW,249,0.0,0.0,100,0.00,,,0.11,0.000000,,2013-01-12 10:52:00,
2013-01-12 06:02:00,60.0,60.0,-100.00,WSW,249,0.0,0.0,100,0.00,,,0.11,0.000000,,2013-01-12 11:02:00,
2013-01-12 06:12:00,60.0,60.0,-100.00,WSW,249,0.0,0.0,100,0.00,,,0.11,0.000000,,2013-01-12 11:12:00,
2013-01-12 06:33:00,58.0,58.0,-100.00,WSW,254,0.0,0.0,100,0.00,,,0.11,0.000000,,2013-01-12 11:33:00,
2013-01-12 06:43:00,58.0,58.0,-100.00,WSW,254,0.0,0.0,100,0.00,,,0.11,0.000000,,2013-01-12 11:43:00,
2013-01-12 06:53:00,58.0,58.0,-100.00,WSW,254,0.0,0.0,100,0.00,,,0.11,0.000000,,2013-01-12 11:53:00,
2013-01-12 07:03:00,58.0,58.0,-100.00,WSW,254,0.0,0.0,100,0.00,,,0.11,0.000000,,2013-01-12 12:03:00,
2013-01-12 07:12:00,58.0,58.0,-100.00,WSW,254,0.0,0.0,100,0.00,,,0.11,0.000000,,2013-01-12 12:12:00,
2013-01-12 07:33:00,57.0,57.0,-100.00,SSW,212,0.0,0.0,100,0.00,,,0.11,0.000000,,2013-01-12 12:33:00,
2013-01-12 07:43:00,57.0,57.0,-100.00,SSW,212,0.0,0.0,100,0.00,,,0.11,0.000000,,2013-01-12 12:43:00,
2013-01-12 07:53:00,57.0,57.0,-100.00,SSW,212,0.0,0.0,100,0.00,,,0.11,0.000000,,2013-01-12 12:53:00,
2013-01-12 08:02:00,57.0,57.0,-100.00,SSW,212,0.0,0.0,100,0.00,,,0.11,0.000000,,2013-01-12 13:02:00,
2013-01-12 08:12:00,57.0,57.0,-100.00,SSW,212,0.0,0.0,100,0.00,,,0.11,0.000000,,2013-01-12 13:12:00,
2013-01-12 08:43:00,59.0,59.0,-100.00,SW,223,1.0,6.0,100,0.00,,,0.11,29.000000,,2013-01-12 13:43:00,
2013-01-12 08:53:00,59.0,59.0,-100.00,SW,223,1.0,6.0,100,0.00,,,0.11,29.000000,,2013-01-12 13:53:00,
2013-01-12 09:02:00,59.0,59.0,-100.00,SW,223,1.0,6.0,100,0.00,,,0.11,29.000000,,2013-01-12 14:02:00,
2013-01-12 09:12:00,59.0,59.0,-100.00,SW,223,1.0,6.0,100,0.00,,,0.11,29.000000,,2013-01-12 14:12:00,
2013-01-12 09:33:00,66.0,66.0,-100.00,West,260,4.0,6.0,100,0.00,,,0.11,200.000000,,2013-01-12 14:33:00,
2013-01-12 09:43:00,66.0,66.0,-100.00,West,260,4.0,6.0,100,0.00,,,0.11,200.000000,,2013-01-12 14:43:00,
2013-01-12 09:53:00,66.0,66.0,-100.00,West,260,4.0,6.0,100,0.00,,,0.11,200.000000,,2013-01-12 14:53:00,
2013-01-12 10:03:00,66.0,66.0,-100.00,West,260,4.0,6.0,100,0.00,,,0.11,200.000000,,2013-01-12 15:03:00,
2013-01-12 10:13:00,66.0,66.0,-100.00,West,260,4.0,6.0,100,0.00,,,0.11,200.000000,,2013-01-12 15:13:00,
2013-01-12 10:34:00,69.0,65.0,-100.00,WSW,258,4.0,10.0,86,0.00,,,0.11,353.000000,,2013-01-12 15:34:00,
2013-01-12 10:43:00,69.0,65.0,-100.00,WSW,258,4.0,10.0,86,0.00,,,0.11,353.000000,,2013-01-12 15:43:00,
2013-01-12 10:53:00,69.0,65.0,-100.00,WSW,258,4.0,10.0,86,0.00,,,0.11,353.000000,,2013-01-12 15:53:00,
2013-01-12 11:03:00,69.0,65.0,-100.00,WSW,258,4.0,10.0,86,0.00,,,0.11,353.000000,,2013-01-12 16:03:00,
2013-01-12 11:12:00,69.0,65.0,-100.00,WSW,258,4.0,10.0,86,0.00,,,0.11,353.000000,,2013-01-12 16:12:00,
2013-01-12 11:33:00,70.0,65.0,-100.00,West,272,3.0,8.0,84,0.00,,,0.11,274.000000,,2013-01-12 16:33:00,
2013-01-12 11:43:00,70.0,65.0,-100.00,West,272,3.0,8.0,84,0.00,,,0.11,274.000000,,2013-01-12 16:43:00,
2013-01-12 11:53:00,70.0,65.0,-100.00,West,272,3.0,8.0,84,0.00,,,0.11,274.000000,,2013-01-12 16:53:00,
2013-01-12 12:02:00,70.0,65.0,-100.00,West,272,3.0,8.0,84,0.00,,,0.11,274.000000,,2013-01-12 17:02:00,
2013-01-12 12:12:00,70.0,65.0,-100.00,West,272,3.0,8.0,84,0.00,,,0.11,274.000000,,2013-01-12 17:12:00,
2013-01-12 12:33:00,74.0,67.0,-100.00,West,269,5.0,9.0,79,0.00,,,0.11,348.000000,,2013-01-12 17:33:00,
2013-01-12 12:43:00,74.0,67.0,-100.00,West,269,5.0,9.0,79,0.00,,,0.11,348.000000,,2013-01-12 17:43:00,
2013-01-12 12:53:00,74.0,67.0,-100.00,West,269,5.0,9.0,79,0.00,,,0.11,348.000000,,2013-01-12 17:53:00,
2013-01-12 13:03:00,74.0,67.0,-100.00,West,269,5.0,9.0,79,0.00,,,0.11,348.000000,,2013-01-12 18:03:00,
2013-01-12 13:12:00,74.0,67.0,-100.00,West,269,5.0,9.0,79,0.00,,,0.11,348.000000,,2013-01-12 18:12:00,
2013-01-12 13:33:00,73.0,65.0,-100.00,West,273,3.0,11.0,75,0.00,,,0.11,376.000000,,2013-01-12 18:33:00,
2013-01-12 13:43:00,73.0,65.0,-100.00,West,273,3.0,11.0,75,0.00,,,0.11,376.000000,,2013-01-12 18:43:00,
2013-01-12 13:53:00,73.0,65.0,-100.00,West,273,3.0,11.0,75,0.00,,,0.11,376.000000,,2013-01-12 18:53:00,
2013-01-12 14:03:00,73.0,65.0,-100.00,West,273,3.0,11.0,75,0.00,,,0.11,376.000000,,2013-01-12 19:03:00,
2013-01-12 14:12:00,73.0,65.0,-100.00,West,273,3.0,11.0,75,0.00,,,0.11,376.000000,,2013-01-12 19:12:00,
2013-01-12 14:43:00,75.0,66.0,-100.00,West,264,4.0,8.0,74,0.00,,,0.10,308.000000,,2013-01-12 19:43:00,
2013-01-12 14:53:00,75.0,66.0,-100.00,West,264,4.0,8.0,74,0.00,,,0.10,308.000000,,2013-01-12 19:53:00,
2013-01-12 15:03:00,75.0,66.0,-100.00,West,264,4.0,8.0,74,0.00,,,0.10,308.000000,,2013-01-12 20:03:00,
2013-01-12 15:13:00,75.0,66.0,-100.00,West,264,4.0,8.0,74,0.00,,,0.10,308.000000,,2013-01-12 20:13:00,
2013-01-12 15:33:00,77.0,68.0,-100.00,West,275,4.0,9.0,73,0.00,,,0.01,281.000000,,2013-01-12 20:33:00,
2013-01-12 15:43:00,77.0,68.0,-100.00,West,275,4.0,9.0,73,0.00,,,0.01,281.000000,,2013-01-12 20:43:00,
2013-01-12 15:53:00,77.0,68.0,-100.00,West,275,4.0,9.0,73,0.00,,,0.01,281.000000,,2013-01-12 20:53:00,
2013-01-12 16:03:00,77.0,68.0,-100.00,West,275,4.0,9.0,73,0.00,,,0.01,281.000000,,2013-01-12 21:03:00,
2013-01-12 16:12:00,77.0,68.0,-100.00,West,275,4.0,9.0,73,0.00,,,0.01,281.000000,,2013-01-12 21:12:00,
2013-01-12 16:33:00,76.0,65.0,-100.00,WNW,294,2.0,7.0,68,0.00,,,0.01,162.000000,,2013-01-12 21:33:00,
2013-01-12 16:43:00,76.0,65.0,-100.00,WNW,294,2.0,7.0,68,0.00,,,0.01,162.000000,,2013-01-12 21:43:00,
2013-01-12 16:53:00,76.0,65.0,-100.00,WNW,294,2.0,7.0,68,0.00,,,0.01,162.000000,,2013-01-12 21:53:00,
2013-01-12 17:03:00,76.0,65.0,-100.00,WNW,294,2.0,7.0,68,0.00,,,0.01,162.000000,,2013-01-12 22:03:00,
2013-01-12 17:12:00,76.0,65.0,-100.00,WNW,294,2.0,7.0,68,0.00,,,0.01,162.000000,,2013-01-12 22:12:00,
2013-01-12 17:33:00,70.0,64.0,-100.00,ENE,59,0.0,2.0,80,0.00,,,0.01,23.000000,,2013-01-12 22:33:00,
2013-01-12 17:43:00,70.0,64.0,-100.00,ENE,59,0.0,2.0,80,0.00,,,0.01,23.000000,,2013-01-12 22:43:00,
2013-01-12 17:53:00,70.0,64.0,-100.00,ENE,59,0.0,2.0,80,0.00,,,0.01,23.000000,,2013-01-12 22:53:00,
2013-01-12 18:03:00,70.0,64.0,-100.00,ENE,59,0.0,2.0,80,0.00,,,0.01,23.000000,,2013-01-12 23:03:00,
2013-01-12 18:13:00,70.0,64.0,-100.00,ENE,59,0.0,2.0,80,0.00,,,0.01,23.000000,,2013-01-12 23:13:00,
2013-01-12 18:43:00,64.0,62.0,-100.00,SE,131,0.0,0.0,92,0.00,,,0.01,0.000000,,2013-01-12 23:43:00,
2013-01-12 18:53:00,64.0,62.0,-100.00,SE,131,0.0,0.0,92,0.00,,,0.01,0.000000,,2013-01-12 23:53:00,
2013-01-12 19:03:00,64.0,62.0,-100.00,SE,131,0.0,0.0,92,0.00,,,0.01,0.000000,,2013-01-13 00:03:00,
2013-01-12 19:12:00,64.0,62.0,-100.00,SE,131,0.0,0.0,92,0.00,,,0.01,0.000000,,2013-01-13 00:12:00,
2013-01-12 19:33:00,61.0,60.0,-100.00,SE,146,0.0,0.0,98,0.00,,,0.01,0.000000,,2013-01-13 00:33:00,
2013-01-12 19:43:00,61.0,60.0,-100.00,SE,146,0.0,0.0,98,0.00,,,0.01,0.000000,,2013-01-13 00:43:00,
2013-01-12 19:53:00,61.0,60.0,-100.00,SE,146,0.0,0.0,98,0.00,,,0.01,0.000000,,2013-01-13 00:53:00,
2013-01-12 20:03:00,61.0,60.0,-100.00,SE,146,0.0,0.0,98,0.00,,,0.01,0.000000,,2013-01-13 01:03:00,
2013-01-12 20:12:00,61.0,60.0,-100.00,SE,146,0.0,0.0,98,0.00,,,0.01,0.000000,,2013-01-13 01:12:00,
2013-01-12 20:43:00,59.0,59.0,-100.00,SE,143,0.0,0.0,100,0.00,,,0.01,0.000000,,2013-01-13 01:43:00,
2013-01-12 20:53:00,59.0,59.0,-100.00,SE,143,0.0,0.0,100,0.00,,,0.01,0.000000,,2013-01-13 01:53:00,
2013-01-12 21:03:00,59.0,59.0,-100.00,SE,143,0.0,0.0,100,0.00,,,0.01,0.000000,,2013-01-13 02:03:00,
2013-01-12 21:13:00,59.0,59.0,-100.00,SE,143,0.0,0.0,100,0.00,,,0.01,0.000000,,2013-01-13 02:13:00,
2013-01-12 21:33:00,57.0,57.0,-100.00,SE,143,0.0,0.0,100,0.00,,,0.01,0.000000,,2013-01-13 02:33:00,
2013-01-12 21:43:00,57.0,57.0,-100.00,SE,143,0.0,0.0,100,0.00,,,0.01,0.000000,,2013-01-13 02:43:00,
2013-01-12 21:53:00,57.0,57.0,-100.00,SE,143,0.0,0.0,100,0.00,,,0.01,0.000000,,2013-01-13 02:53:00,
2013-01-12 22:03:00,57.0,57.0,-100.00,SE,143,0.0,0.0,100,0.00,,,0.01,0.000000,,2013-01-13 03:03:00,
2013-01-12 22:12:00,57.0,57.0,-100.00,SE,143,0.0,0.0,100,0.00,,,0.01,0.000000,,2013-01-13 03:12:00,
2013-01-12 22:33:00,56.0,56.0,-100.00,ESE,115,0.0,0.0,100,0.00,,,0.01,0.000000,,2013-01-13 03:33:00,
2013-01-12 22:43:00,56.0,56.0,-100.00,ESE,115,0.0,0.0,100,0.00,,,0.01,0.000000,,2013-01-13 03:43:00,
2013-01-12 22:53:00,56.0,56.0,-100.00,ESE,115,0.0,0.0,100,0.00,,,0.01,0.000000,,2013-01-13 03:53:00,
2013-01-12 23:03:00,56.0,56.0,-100.00,ESE,115,0.0,0.0,100,0.00,,,0.01,0.000000,,2013-01-13 04:03:00,
2013-01-12 23:12:00,56.0,56.0,-100.00,ESE,115,0.0,0.0,100,0.00,,,0.01,0.000000,,2013-01-13 04:12:00,
2013-01-12 23:33:00,56.0,56.0,-100.00,ESE,103,0.0,0.0,100,0.00,,,0.00,0.000000,,2013-01-13 04:33:00,
2013-01-12 23:43:00,56.0,56.0,-100.00,ESE,103,0.0,0.0,100,0.00,,,0.00,0.000000,,2013-01-13 04:43:00,
2013-01-12 23:53:00,56.0,56.0,-100.00,ESE,103,0.0,0.0,100,0.00,,,0.00,0.000000,,2013-01-13 04:53:00,